TimeCST,TemperatureF,Dew PointF,Humidity,Sea Level PressureIn,VisibilityMPH,Wind Direction,Wind SpeedMPH,Gust SpeedMPH,PrecipitationIn,Events,Conditions,WindDirDegrees,DateUTC
12:15 AM,26.4,25.3,96,30.12,5.0,Calm,Calm,-,N/A,,Scattered Clouds,0,2012-12-28 06:15:00
12:35 AM,25.0,23.9,96,30.12,5.0,Calm,Calm,-,N/A,,Mostly Cloudy,0,2012-12-28 06:35:00
12:55 AM,26.2,25.5,97,30.12,7.0,SSW,3.5,-,N/A,,Mostly Cloudy,200,2012-12-28 06:55:00
1:15 AM,26.8,25.3,94,30.12,10.0,SSW,3.5,-,N/A,,Scattered Clouds,210,2012-12-28 07:15:00
1:35 AM,26.4,24.6,93,30.12,10.0,SSW,3.5,-,N/A,,Scattered Clouds,210,2012-12-28 07:35:00
1:55 AM,27.5,25.7,93,30.12,10.0,SSW,3.5,-,N/A,,Mostly Cloudy,200,2012-12-28 07:55:00
2:15 AM,28.2,25.3,89,30.12,10.0,South,3.5,-,N/A,,Overcast,170,2012-12-28 08:15:00
2:35 AM,27.5,25.0,90,30.12,10.0,Calm,Calm,-,N/A,,Overcast,0,2012-12-28 08:35:00
2:55 AM,28.0,25.5,90,30.11,10.0,Calm,Calm,-,N/A,,Overcast,0,2012-12-28 08:55:00
3:15 AM,28.4,25.7,90,30.10,10.0,SSE,3.5,-,N/A,,Overcast,150,2012-12-28 09:15:00
3:35 AM,28.4,26.1,91,30.09,10.0,Calm,Calm,-,N/A,,Overcast,0,2012-12-28 09:35:00
3:55 AM,28.4,25.9,90,30.09,10.0,Calm,Calm,-,N/A,,Overcast,0,2012-12-28 09:55:00
4:15 AM,28.8,25.9,89,30.08,7.0,ESE,3.5,-,N/A,,Overcast,120,2012-12-28 10:15:00
4:35 AM,28.6,26.1,90,30.08,7.0,Calm,Calm,-,N/A,,Overcast,0,2012-12-28 10:35:00
5:15 AM,28.8,25.7,88,30.08,7.0,Calm,Calm,-,N/A,,Overcast,0,2012-12-28 11:15:00
5:35 AM,28.4,25.7,90,30.08,7.0,Calm,Calm,-,N/A,,Overcast,0,2012-12-28 11:35:00
5:55 AM,28.4,26.1,91,30.08,7.0,Calm,Calm,-,N/A,,Overcast,0,2012-12-28 11:55:00
6:15 AM,28.4,26.2,92,30.09,7.0,ESE,3.5,-,N/A,,Overcast,120,2012-12-28 12:15:00
6:35 AM,28.0,26.1,92,30.09,7.0,SE,3.5,-,N/A,,Overcast,140,2012-12-28 12:35:00
6:55 AM,28.0,26.1,92,30.09,7.0,Calm,Calm,-,N/A,,Overcast,0,2012-12-28 12:55:00
7:15 AM,28.0,26.1,92,30.10,7.0,Calm,Calm,-,N/A,,Overcast,0,2012-12-28 13:15:00
7:35 AM,28.0,26.2,93,30.10,2.0,SSE,3.5,-,N/A,Snow,Light Snow,160,2012-12-28 13:35:00
7:55 AM,27.9,26.6,95,30.11,1.2,SSE,3.5,-,N/A,Snow,Light Snow,160,2012-12-28 13:55:00
8:15 AM,27.9,27.0,96,30.11,1.5,SE,3.5,-,N/A,Snow,Light Snow,140,2012-12-28 14:15:00
8:35 AM,28.0,27.3,97,30.11,2.0,SE,4.6,-,N/A,Snow,Light Snow,130,2012-12-28 14:35:00
8:55 AM,28.2,27.5,97,30.11,1.5,SE,4.6,-,N/A,Snow,Light Snow,130,2012-12-28 14:55:00
9:15 AM,28.2,27.5,97,30.11,1.0,SE,3.5,-,N/A,Snow,Light Snow,140,2012-12-28 15:15:00
9:35 AM,28.4,27.5,96,30.11,1.2,SE,4.6,-,N/A,Snow,Light Snow,130,2012-12-28 15:35:00
9:55 AM,28.4,27.5,96,30.10,1.0,SE,5.8,-,N/A,Snow,Light Snow,140,2012-12-28 15:55:00
10:15 AM,28.6,27.5,96,30.11,2.0,SSE,5.8,-,N/A,Snow,Light Snow,150,2012-12-28 16:15:00
10:35 AM,28.8,27.3,94,30.09,1.0,SE,6.9,-,N/A,Snow,Light Snow,140,2012-12-28 16:35:00
10:55 AM,28.9,27.3,94,30.08,2.0,SSE,9.2,-,N/A,Snow,Light Snow,150,2012-12-28 16:55:00
11:15 AM,29.1,26.6,90,30.07,3.0,SSE,8.1,-,N/A,Snow,Light Snow,160,2012-12-28 17:15:00
11:35 AM,28.9,26.4,90,30.05,7.0,SSE,5.8,-,N/A,,Overcast,150,2012-12-28 17:35:00
11:55 AM,29.1,26.4,90,30.03,7.0,SSE,6.9,-,N/A,,Overcast,150,2012-12-28 17:55:00
12:15 PM,29.7,26.6,88,30.01,7.0,SSE,4.6,-,N/A,,Overcast,150,2012-12-28 18:15:00
12:35 PM,29.7,26.1,86,30.00,10.0,SSE,6.9,-,N/A,,Overcast,150,2012-12-28 18:35:00
12:55 PM,29.7,25.7,85,29.99,10.0,SSE,5.8,-,N/A,,Overcast,150,2012-12-28 18:55:00
1:15 PM,29.8,26.1,86,29.98,7.0,SE,5.8,-,N/A,,Overcast,140,2012-12-28 19:15:00
1:35 PM,29.8,26.1,86,29.98,7.0,SSE,6.9,-,N/A,,Overcast,150,2012-12-28 19:35:00
1:55 PM,30.0,25.5,83,29.97,10.0,South,6.9,-,N/A,,Overcast,170,2012-12-28 19:55:00
2:15 PM,30.0,25.3,83,29.96,10.0,SSE,4.6,-,N/A,,Overcast,150,2012-12-28 20:15:00
2:35 PM,30.2,24.8,80,29.96,10.0,SSE,6.9,-,N/A,,Overcast,150,2012-12-28 20:35:00
2:55 PM,30.0,25.2,82,29.96,10.0,SSE,5.8,-,N/A,,Overcast,150,2012-12-28 20:55:00
3:15 PM,30.0,25.3,83,29.96,10.0,SSE,5.8,-,N/A,,Overcast,150,2012-12-28 21:15:00
3:35 PM,29.8,25.2,83,29.96,10.0,SE,4.6,-,N/A,,Overcast,140,2012-12-28 21:35:00
3:55 PM,29.8,25.0,82,29.97,10.0,SSE,5.8,-,N/A,,Overcast,160,2012-12-28 21:55:00
4:35 PM,29.3,25.3,85,29.96,10.0,SSE,3.5,-,N/A,,Overcast,160,2012-12-28 22:35:00
4:55 PM,29.3,25.3,85,29.96,10.0,SSE,3.5,-,N/A,,Overcast,150,2012-12-28 22:55:00
5:15 PM,29.1,25.3,86,29.96,10.0,Calm,Calm,-,N/A,,Overcast,0,2012-12-28 23:15:00
5:35 PM,29.1,25.5,86,29.96,10.0,SE,3.5,-,N/A,,Overcast,140,2012-12-28 23:35:00
5:55 PM,29.1,25.3,86,29.96,7.0,SE,3.5,-,N/A,,Overcast,140,2012-12-28 23:55:00
6:15 PM,28.9,25.3,86,29.96,7.0,Calm,Calm,-,N/A,,Overcast,0,2012-12-29 00:15:00
6:35 PM,28.9,25.7,88,29.96,7.0,ESE,3.5,-,N/A,,Overcast,120,2012-12-29 00:35:00
7:15 PM,28.9,25.7,88,29.94,7.0,Calm,Calm,-,N/A,,Overcast,0,2012-12-29 01:15:00
7:35 PM,28.8,25.7,88,29.94,7.0,East,3.5,-,N/A,,Overcast,90,2012-12-29 01:35:00
7:55 PM,28.8,25.7,88,29.94,7.0,East,3.5,-,N/A,,Overcast,100,2012-12-29 01:55:00
8:15 PM,28.6,25.5,88,29.92,7.0,ENE,3.5,-,N/A,,Overcast,70,2012-12-29 02:15:00
8:35 PM,28.4,25.7,90,29.91,7.0,East,4.6,-,N/A,,Overcast,80,2012-12-29 02:35:00
8:55 PM,28.4,25.7,90,29.91,5.0,East,4.6,-,N/A,,Overcast,90,2012-12-29 02:55:00
9:15 PM,28.4,25.7,90,29.91,5.0,East,4.6,-,N/A,,Overcast,90,2012-12-29 03:15:00
9:35 PM,28.4,25.7,90,29.90,5.0,East,4.6,-,N/A,,Overcast,80,2012-12-29 03:35:00
9:55 PM,28.4,25.7,90,29.91,5.0,East,3.5,-,N/A,,Overcast,90,2012-12-29 03:55:00
10:15 PM,28.2,25.7,90,29.90,7.0,East,4.6,-,N/A,,Overcast,80,2012-12-29 04:15:00
10:35 PM,28.2,25.7,90,29.89,7.0,East,3.5,-,N/A,,Overcast,90,2012-12-29 04:35:00
10:55 PM,28.2,25.7,90,29.88,5.0,East,3.5,-,N/A,,Overcast,90,2012-12-29 04:55:00
11:15 PM,28.0,25.7,91,29.88,5.0,East,3.5,-,N/A,,Overcast,80,2012-12-29 05:15:00
11:35 PM,28.0,25.9,92,29.87,5.0,East,3.5,-,N/A,,Overcast,90,2012-12-29 05:35:00
11:55 PM,27.5,25.7,93,29.86,5.0,Calm,Calm,-,N/A,,Overcast,0,2012-12-29 05:55:00